| time (UTC) | temp C | wind direction | speed KPH | gust KPH | rain 1hr cm | rain 24hr cm | rain mn cm | humidity % | barometer mb |
| 20260508004039 | 15 | 0.0 | 0.0 | 0.00 | 0.00 | 0.00 | 60 | 1016.4 | |
| 20260508003045 | 16 | 0.0 | 0.0 | 0.00 | 0.00 | 0.00 | 57 | 1016.3 | |
| 20260508002029 | 17 | 0.0 | 0.0 | 0.00 | 0.00 | 0.00 | 50 | 1016.2 | |
| 20260508001017 | 17 | 0.0 | 0.0 | 0.00 | 0.00 | 0.00 | 48 | 1016.4 | |
| 20260508000022 | 19 | 284 | 0.0 | 1.6 | 0.00 | 0.00 | 0.00 | 41 | 1016.3 |
| 20260507235027 | 18 | 294 | 1.6 | 3.2 | 0.00 | 0.00 | 0.00 | 37 | 1016.2 |
| 20260507234032 | 18 | 267 | 1.6 | 3.2 | 0.00 | 0.00 | 0.00 | 38 | 1016.1 |
| 20260507233020 | 19 | 292 | 3.2 | 6.4 | 0.00 | 0.00 | 0.00 | 40 | 1016.5 |
| 20260507232025 | 19 | 296 | 0.0 | 1.6 | 0.00 | 0.00 | 0.00 | 37 | 1016.4 |
| 20260507231030 | 19 | 296 | 1.6 | 3.2 | 0.00 | 0.00 | 0.00 | 36 | 1016.4 |
| 20260507230039 | 19 | 322 | 3.2 | 6.4 | 0.00 | 0.00 | 0.00 | 37 | 1016.5 |
| 20260507225023 | 19 | 272 | 4.8 | 9.7 | 0.00 | 0.00 | 0.00 | 38 | 1016.6 |
| 20260507224028 | 20 | 286 | 4.8 | 11.3 | 0.00 | 0.00 | 0.00 | 37 | 1016.7 |
| 20260507223015 | 19 | 289 | 3.2 | 12.9 | 0.00 | 0.00 | 0.00 | 38 | 1016.7 |
| 20260507222020 | 19 | 266 | 4.8 | 9.7 | 0.00 | 0.00 | 0.00 | 38 | 1016.6 |
| 20260507221026 | 20 | 304 | 4.8 | 16.1 | 0.00 | 0.00 | 0.00 | 38 | 1016.6 |
| 20260507220032 | 21 | 272 | 1.6 | 3.2 | 0.00 | 0.00 | 0.00 | 35 | 1016.8 |
| 20260507215019 | 21 | 49 | 1.6 | 3.2 | 0.00 | 0.00 | 0.00 | 38 | 1016.9 |
| 20260507214023 | 19 | 332 | 4.8 | 9.7 | 0.00 | 0.00 | 0.00 | 39 | 1016.6 |
| 20260507213028 | 20 | 284 | 1.6 | 9.7 | 0.00 | 0.00 | 0.00 | 38 | 1016.6 |
| 20260507212016 | 20 | 270 | 4.8 | 11.3 | 0.00 | 0.00 | 0.00 | 40 | 1016.6 |
| 20260507211022 | 19 | 242 | 1.6 | 6.4 | 0.00 | 0.00 | 0.00 | 38 | 1016.7 |
| 20260507210027 | 19 | 291 | 3.2 | 9.7 | 0.00 | 0.00 | 0.00 | 39 | 1016.7 |
| 20260507205032 | 19 | 261 | 6.4 | 14.5 | 0.00 | 0.00 | 0.00 | 41 | 1016.6 |
| 20260507204019 | 19 | 121 | 1.6 | 9.7 | 0.00 | 0.00 | 0.00 | 40 | 1016.8 |
| 20260507203025 | 20 | 292 | 4.8 | 12.9 | 0.00 | 0.00 | 0.00 | 39 | 1017.0 |
| 20260507202029 | 20 | 346 | 3.2 | 9.7 | 0.00 | 0.00 | 0.00 | 40 | 1016.9 |
| 20260507201038 | 20 | 56 | 1.6 | 3.2 | 0.00 | 0.00 | 0.00 | 39 | 1017.1 |
| 20260507200043 | 19 | 289 | 3.2 | 6.4 | 0.00 | 0.00 | 0.00 | 42 | 1017.1 |
| 20260507195027 | 20 | 300 | 4.8 | 11.3 | 0.00 | 0.00 | 0.00 | 41 | 1017.1 |
| 20260507194038 | 20 | 299 | 1.6 | 3.2 | 0.00 | 0.00 | 0.00 | 39 | 1017.5 |
| 20260507193041 | 19 | 293 | 1.6 | 4.8 | 0.00 | 0.00 | 0.00 | 42 | 1017.5 |
| 20260507192025 | 18 | 290 | 3.2 | 16.1 | 0.00 | 0.00 | 0.00 | 43 | 1017.5 |
| 20260507191030 | 18 | 85 | 1.6 | 3.2 | 0.00 | 0.00 | 0.00 | 40 | 1017.4 |
| 20260507190018 | 19 | 306 | 3.2 | 9.7 | 0.00 | 0.00 | 0.00 | 42 | 1017.7 |
| 20260507185023 | 18 | 294 | 1.6 | 4.8 | 0.00 | 0.00 | 0.00 | 40 | 1017.7 |
| 20260507184049 | 18 | 345 | 3.2 | 12.9 | 0.00 | 0.00 | 0.00 | 42 | 1017.8 |
| 20260507183033 | 17 | 298 | 4.8 | 12.9 | 0.00 | 0.00 | 0.00 | 42 | 1017.8 |
| 20260507182021 | 18 | 310 | 1.6 | 9.7 | 0.00 | 0.00 | 0.00 | 42 | 1018.0 |
| 20260507181026 | 17 | 229 | 1.6 | 9.7 | 0.00 | 0.00 | 0.00 | 40 | 1018.0 |
| 20260507180031 | 17 | 336 | 6.4 | 12.9 | 0.00 | 0.00 | 0.00 | 41 | 1018.1 |
| 20260507175018 | 18 | 340 | 4.8 | 11.3 | 0.00 | 0.00 | 0.00 | 42 | 1018.3 |
| 20260507174024 | 17 | 162 | 1.6 | 11.3 | 0.00 | 0.00 | 0.00 | 43 | 1018.3 |
| 20260507173029 | 17 | 330 | 1.6 | 11.3 | 0.00 | 0.00 | 0.00 | 41 | 1018.3 |
| 20260507172016 | 17 | 332 | 3.2 | 6.4 | 0.00 | 0.00 | 0.00 | 42 | 1018.5 |
| 20260507171042 | 17 | 40 | 1.6 | 4.8 | 0.00 | 0.00 | 0.00 | 46 | 1018.6 |
| 20260507170027 | 17 | 313 | 1.6 | 6.4 | 0.00 | 0.00 | 0.00 | 43 | 1018.7 |
| 20260507165032 | 17 | 293 | 1.6 | 4.8 | 0.00 | 0.00 | 0.00 | 42 | 1018.9 |
| 20260507164019 | 17 | 313 | 1.6 | 4.8 | 0.00 | 0.00 | 0.00 | 42 | 1019.1 |
| 20260507163024 | 16 | 327 | 4.8 | 11.3 | 0.00 | 0.00 | 0.00 | 44 | 1019.1 |
| 20260507162029 | 17 | 216 | 1.6 | 3.2 | 0.00 | 0.00 | 0.00 | 45 | 1019.1 |
| 20260507161018 | 16 | 294 | 1.6 | 6.4 | 0.00 | 0.00 | 0.00 | 45 | 1019.0 |
| 20260507160022 | 17 | 18 | 1.6 | 6.4 | 0.00 | 0.00 | 0.00 | 46 | 1019.2 |
| 20260507155027 | 16 | 303 | 4.8 | 11.3 | 0.00 | 0.00 | 0.00 | 49 | 1019.1 |
| 20260507154032 | 16 | 305 | 1.6 | 6.4 | 0.00 | 0.00 | 0.00 | 48 | 1019.3 |
| 20260507153020 | 16 | 23 | 0.0 | 4.8 | 0.00 | 0.00 | 0.00 | 47 | 1019.2 |
| 20260507152025 | 15 | 289 | 3.2 | 4.8 | 0.00 | 0.00 | 0.00 | 50 | 1019.2 |
| 20260507151031 | 16 | 330 | 3.2 | 4.8 | 0.00 | 0.00 | 0.00 | 49 | 1019.0 |
| 20260507150018 | 16 | 318 | 1.6 | 3.2 | 0.00 | 0.00 | 0.00 | 51 | 1019.2 |
| 20260507145023 | 16 | 337 | 0.0 | 4.8 | 0.00 | 0.00 | 0.00 | 53 | 1019.3 |
| 20260507144028 | 15 | 51 | 1.6 | 3.2 | 0.00 | 0.00 | 0.00 | 56 | 1019.3 |
| 20260507143036 | 15 | 29 | 1.6 | 3.2 | 0.00 | 0.00 | 0.00 | 59 | 1019.4 |
| 20260507142021 | 15 | 83 | 0.0 | 1.6 | 0.00 | 0.00 | 0.00 | 59 | 1019.4 |
| 20260507141026 | 15 | 0.0 | 1.6 | 0.00 | 0.00 | 0.00 | 62 | 1019.2 | |
| 20260507140031 | 14 | 73 | 1.6 | 4.8 | 0.00 | 0.00 | 0.00 | 64 | 1019.1 |
| 20260507135100 | 13 | 70 | 1.6 | 4.8 | 0.00 | 0.00 | 0.00 | 65 | 1019.3 |
| 20260507134024 | 13 | 57 | 1.6 | 6.4 | 0.00 | 0.00 | 0.00 | 67 | 1019.3 |
| 20260507133050 | 12 | 108 | 1.6 | 4.8 | 0.00 | 0.00 | 0.00 | 69 | 1019.1 |
| 20260507132037 | 12 | 100 | 1.6 | 4.8 | 0.00 | 0.00 | 0.00 | 68 | 1019.3 |
| 20260507131022 | 12 | 0.0 | 1.6 | 0.00 | 0.00 | 0.00 | 71 | 1019.2 | |
| 20260507130048 | 12 | 62 | 0.0 | 1.6 | 0.00 | 0.00 | 0.00 | 72 | 1019.1 |
| 20260507125031 | 11 | 58 | 0.0 | 1.6 | 0.00 | 0.00 | 0.00 | 81 | 1019.1 |
| 20260507124040 | 10 | 0.0 | 1.6 | 0.00 | 0.00 | 0.00 | 95 | 1019.1 | |
| 20260507123024 | 8 | 208 | 0.0 | 1.6 | 0.00 | 0.00 | 0.00 | 99 | 1019.1 |
| 20260507122031 | 7 | 0.0 | 0.0 | 0.00 | 0.00 | 0.00 | 99 | 1018.9 | |
| 20260507121017 | 6 | 0.0 | 0.0 | 0.00 | 0.00 | 0.00 | 99 | 1018.7 | |
| 20260507120022 | 6 | 0.0 | 0.0 | 0.00 | 0.00 | 0.00 | 99 | 1018.7 | |
| 20260507115048 | 6 | 0.0 | 0.0 | 0.00 | 0.00 | 0.00 | 99 | 1018.4 | |
| 20260507114016 | 5 | 0.0 | 0.0 | 0.00 | 0.00 | 0.00 | 99 | 1018.4 | |
| 20260507113023 | 5 | 0.0 | 0.0 | 0.00 | 0.00 | 0.00 | 99 | 1018.3 | |
| 20260507112025 | 5 | 0.0 | 0.0 | 0.00 | 0.00 | 0.00 | 99 | 1018.4 | |
| 20260507111030 | 5 | 0.0 | 0.0 | 0.00 | 0.00 | 0.00 | 99 | 1018.4 | |
| 20260507110035 | 5 | 0.0 | 0.0 | 0.00 | 0.00 | 0.00 | 99 | 1018.5 | |
| 20260507105102 | 5 | 0.0 | 0.0 | 0.00 | 0.00 | 0.00 | 99 | 1018.4 | |
| 20260507104045 | 5 | 0.0 | 0.0 | 0.00 | 0.00 | 0.00 | 99 | 1018.2 | |
| 20260507103033 | 5 | 0.0 | 0.0 | 0.00 | 0.00 | 0.00 | 99 | 1018.2 | |
| 20260507102038 | 5 | 0.0 | 0.0 | 0.00 | 0.00 | 0.00 | 99 | 1018.3 | |
| 20260507101043 | 6 | 0.0 | 0.0 | 0.00 | 0.00 | 0.00 | 99 | 1018.3 | |
| 20260507100032 | 6 | 0.0 | 0.0 | 0.00 | 0.00 | 0.00 | 99 | 1018.2 | |
| 20260507095057 | 6 | 0.0 | 0.0 | 0.00 | 0.00 | 0.00 | 99 | 1018.2 | |
| 20260507094041 | 6 | 0.0 | 0.0 | 0.00 | 0.00 | 0.00 | 99 | 1018.0 | |
| 20260507093046 | 6 | 0.0 | 0.0 | 0.00 | 0.00 | 0.00 | 99 | 1018.1 | |
| 20260507092034 | 6 | 0.0 | 0.0 | 0.00 | 0.00 | 0.00 | 99 | 1018.0 | |
| 20260507091059 | 6 | 0.0 | 0.0 | 0.00 | 0.00 | 0.00 | 99 | 1018.1 | |
| 20260507090027 | 6 | 0.0 | 0.0 | 0.00 | 0.03 | 0.00 | 99 | 1018.0 | |
| 20260507085032 | 6 | 0.0 | 0.0 | 0.00 | 0.10 | 0.00 | 99 | 1017.9 | |
| 20260507084021 | 6 | 0.0 | 0.0 | 0.00 | 0.10 | 0.00 | 99 | 1017.8 | |
| 20260507083025 | 6 | 0.0 | 0.0 | 0.00 | 0.10 | 0.00 | 99 | 1017.4 | |
| 20260507082030 | 7 | 0.0 | 0.0 | 0.00 | 0.13 | 0.00 | 99 | 1017.5 | |
| 20260507081017 | 7 | 0.0 | 0.0 | 0.00 | 0.13 | 0.00 | 99 | 1017.5 | |
| 20260507080023 | 7 | 0.0 | 0.0 | 0.00 | 0.13 | 0.00 | 99 | 1017.4 | |
| 20260507075028 | 7 | 0.0 | 0.0 | 0.00 | 0.13 | 0.00 | 99 | 1017.4 | |
| 20260507074033 | 7 | 0.0 | 0.0 | 0.00 | 0.13 | 0.00 | 98 | 1017.3 | |
| 20260507073038 | 7 | 0.0 | 0.0 | 0.00 | 0.13 | 0.00 | 98 | 1017.3 | |
| 20260507072026 | 7 | 0.0 | 0.0 | 0.00 | 0.13 | 0.00 | 98 | 1017.3 | |
| 20260507071052 | 7 | 0.0 | 0.0 | 0.00 | 0.13 | 0.00 | 98 | 1017.4 | |
| 20260507070018 | 7 | 0.0 | 0.0 | 0.00 | 0.13 | 0.00 | 98 | 1017.4 | |
| 20260507065024 | 8 | 0.0 | 0.0 | 0.00 | 0.13 | 0.00 | 98 | 1017.4 | |
| 20260507064028 | 8 | 0.0 | 0.0 | 0.00 | 0.13 | 0.00 | 98 | 1017.6 | |
| 20260507063017 | 8 | 0.0 | 0.0 | 0.00 | 0.13 | 0.00 | 98 | 1017.6 | |
| 20260507062021 | 8 | 0.0 | 0.0 | 0.00 | 0.33 | 0.00 | 97 | 1017.6 | |
| 20260507061026 | 8 | 0.0 | 0.0 | 0.00 | 0.74 | 0.00 | 97 | 1017.7 | |
| 20260507060032 | 8 | 0.0 | 0.0 | 0.00 | 0.74 | 0.00 | 97 | 1017.7 | |
| 20260507055039 | 8 | 0.0 | 0.0 | 0.00 | 0.76 | 0.00 | 97 | 1017.6 | |
| 20260507054024 | 8 | 0.0 | 0.0 | 0.00 | 0.79 | 0.00 | 97 | 1017.6 | |
| 20260507053030 | 8 | 0.0 | 0.0 | 0.00 | 0.81 | 0.00 | 96 | 1017.5 | |
| 20260507052017 | 9 | 0.0 | 0.0 | 0.00 | 0.81 | 0.00 | 96 | 1017.4 | |
| 20260507051022 | 9 | 0.0 | 0.0 | 0.00 | 0.81 | 0.00 | 96 | 1017.4 | |
| 20260507050027 | 9 | 0.0 | 0.0 | 0.00 | 0.81 | 0.00 | 95 | 1017.5 | |
| 20260507045032 | 10 | 0.0 | 0.0 | 0.00 | 0.86 | 0.86 | 94 | 1017.5 | |
| 20260507044020 | 10 | 0.0 | 0.0 | 0.00 | 0.86 | 0.86 | 94 | 1017.6 | |
| 20260507043025 | 10 | 0.0 | 0.0 | 0.00 | 0.86 | 0.86 | 93 | 1017.7 | |
| 20260507042030 | 10 | 0.0 | 0.0 | 0.00 | 0.86 | 0.86 | 92 | 1017.6 | |
| 20260507041119 | 11 | 0.0 | 0.0 | 0.00 | 0.86 | 0.86 | 91 | 1017.3 | |
| 20260507040023 | 11 | 0.0 | 0.0 | 0.00 | 0.86 | 0.86 | 89 | 1017.2 | |
| 20260507035048 | 11 | 0.0 | 0.0 | 0.00 | 0.86 | 0.86 | 87 | 1017.3 | |
| 20260507034016 | 11 | 0.0 | 0.0 | 0.00 | 0.86 | 0.86 | 84 | 1017.2 | |
| 20260507033041 | 12 | 0.0 | 0.0 | 0.00 | 0.91 | 0.86 | 84 | 1017.1 | |
| 20260507032046 | 12 | 331 | 0.0 | 1.6 | 0.00 | 0.99 | 0.86 | 86 | 1017.3 |
| 20260507031031 | 12 | 0.0 | 0.0 | 0.00 | 1.04 | 0.86 | 86 | 1017.5 | |
| 20260507030020 | 11 | 0.0 | 0.0 | 0.00 | 1.07 | 0.86 | 86 | 1017.1 | |
| 20260507025023 | 12 | 0.0 | 0.0 | 0.00 | 1.09 | 0.86 | 86 | 1016.7 | |
| 20260507024029 | 12 | 0.0 | 0.0 | 0.00 | 1.09 | 0.86 | 86 | 1016.9 | |
| 20260507023017 | 12 | 0.0 | 0.0 | 0.00 | 1.14 | 0.86 | 87 | 1017.2 | |
| 20260507022022 | 12 | 0.0 | 0.0 | 0.00 | 1.14 | 0.86 | 86 | 1017.5 | |
| 20260507021026 | 12 | 0.0 | 0.0 | 0.00 | 1.19 | 0.86 | 86 | 1017.8 | |
| 20260507020031 | 12 | 330 | 0.0 | 1.6 | 0.00 | 1.19 | 0.86 | 84 | 1017.1 |
| 20260507015019 | 12 | 0.0 | 0.0 | 0.00 | 1.19 | 0.86 | 83 | 1017.0 | |
| 20260507014044 | 12 | 0.0 | 0.0 | 0.00 | 1.24 | 0.86 | 83 | 1017.1 | |
| 20260507013029 | 12 | 0.0 | 0.0 | 0.00 | 1.27 | 0.86 | 81 | 1016.7 | |
| 20260507012017 | 13 | 0.0 | 0.0 | 0.00 | 1.27 | 0.86 | 79 | 1016.8 | |
| 20260507011043 | 13 | 0.0 | 0.0 | 0.00 | 1.32 | 0.86 | 76 | 1017.0 | |
| 20260507010027 | 13 | 0.0 | 0.0 | 0.00 | 1.32 | 0.86 | 72 | 1017.0 | |
| 20260507005032 | 13 | 0.0 | 0.0 | 0.00 | 1.32 | 0.86 | 72 | 1016.9 |